CW4114 Weather Reports


Display with metric or nautical units.
time (UTC)temp
F
wind
direction
speed
MPH
gust
MPH
rain 1hr
in
rain 24hr
in
rain mn
in
humidity
%
barometer
mb
20260831155221 71 106 2.0 4.0 0.01 0.02 0.02 97 1012.9
20260831154722 70 154 1.0 4.0 0.01 0.02 0.02 97 1013.1
20260831154222 70 138 2.0 4.0 0.01 0.02 0.02 97 1013.1
20260831153722 69 135 1.0 4.0 0.01 0.02 0.02 97 1013.2
20260831153222 69 134 1.0 3.0 0.01 0.02 0.02 97 1013.3
20260831152221 69 62 1.0 5.0 0.01 0.02 0.02 97 1013.2
20260831151722 69 128 2.0 5.0 0.01 0.02 0.02 97 1013.2
20260831151221 69 123 1.0 5.0 0.01 0.02 0.02 98 1013.2
20260831150715 69 135 1.0 5.0 0.01 0.02 0.02 98 1013.2
20260831150220 69 181 0.0 6.0 0.02 0.02 0.02 98 1013.3
20260831145703 69 151 1.0 6.0 0.02 0.00 0.02 98 1013.4
20260831145203 69 214 2.0 4.0 0.01 0.00 0.01 98 1013.5
20260831144700 69 216 2.0 5.0 0.01 0.00 0.01 98 1013.4
20260831144424 69 190 2.0 5.0 0.01 0.00 0.01 98 1013.4
20260831143700 69 141 3.0 5.0 0.01 0.00 0.01 98 1013.2
20260831143158 68 182 2.0 4.0 0.01 0.00 0.01 98 1013.3
20260831142657 68 176 2.0 6.0 0.01 0.00 0.01 98 1013.4
20260831142150 68 220 3.0 6.0 0.01 0.00 0.01 98 1013.4
20260831141653 68 157 2.0 4.0 0.01 0.00 0.01 98 1013.5
20260831141146 68 236 2.0 6.0 0.01 0.00 0.01 98 1013.5
20260831140645 68 223 0.0 6.0 0.01 0.00 0.01 98 1013.5
20260831140412 68 166 2.0 5.0 0.00 0.00 0.00 98 1013.5
20260831135646 68 203 2.0 5.0 0.00 0.00 0.00 98 1013.6
20260831135146 68 209 1.0 3.0 0.00 0.00 0.00 98 1013.7
20260831134644 68 244 2.0 3.0 0.00 0.00 0.00 98 1013.7
20260831134144 68 247 2.0 3.0 0.00 0.00 0.00 98 1013.7
20260831133643 68 224 1.0 4.0 0.00 0.00 0.00 98 1013.6
20260831133142 68 220 1.0 4.0 0.00 0.00 0.00 98 1013.3
20260831132656 68 188 1.0 4.0 0.00 0.00 0.00 98 1013.2
20260831132254 68 185 0.0 4.0 0.00 0.01 0.00 98 1013.1
20260831131642 68 206 2.0 4.0 0.00 0.01 0.00 98 1013.1
20260831131140 67 189 0.0 4.0 0.00 0.01 0.00 98 1013.0
20260831130640 67 206 1.0 4.0 0.00 0.01 0.00 98 1013.1
20260831130141 67 193 1.0 5.0 0.00 0.01 0.00 98 1013.0
20260831125909 67 204 2.0 6.0 0.00 0.01 0.00 98 1013.0
20260831125141 67 202 2.0 6.0 0.00 0.01 0.00 98 1012.9
20260831124909 67 199 2.0 5.0 0.00 0.01 0.00 98 1012.9
20260831124136 67 183 1.0 4.0 0.00 0.01 0.00 98 1012.9
20260831123659 67 202 2.0 6.0 0.00 0.01 0.00 98 1012.8
20260831123136 67 182 2.0 6.0 0.00 0.01 0.00 98 1012.7
20260831122925 67 173 2.0 5.0 0.00 0.02 0.00 98 1012.6
20260831122136 67 202 3.0 7.0 0.00 0.02 0.00 98 1012.6
20260831121637 67 126 2.0 7.0 0.00 0.02 0.00 98 1012.4
20260831121134 67 117 3.0 6.0 0.00 0.02 0.00 98 1012.2
20260831120634 67 123 3.0 6.0 0.00 0.02 0.00 98 1012.3
20260831120137 67 123 2.0 6.0 0.00 0.02 0.00 98 1012.4
20260831115626 66 138 1.0 5.0 0.00 0.02 0.00 98 1012.5
20260831115126 66 189 3.0 5.0 0.00 0.02 0.00 98 1012.7
20260831114915 66 159 1.0 4.0 0.00 0.02 0.00 98 1012.5
20260831114359 66 140 1.0 5.0 0.00 0.02 0.00 98 1012.5
20260831113626 66 158 2.0 5.0 0.00 0.02 0.00 98 1012.5
20260831113126 66 138 2.0 5.0 0.00 0.02 0.00 98 1012.7
20260831112625 66 121 2.0 6.0 0.00 0.02 0.00 98 1012.6
20260831112125 66 120 1.0 6.0 0.00 0.02 0.00 98 1012.6
20260831111625 66 118 1.0 4.0 0.00 0.03 0.00 98 1012.8
20260831111125 66 130 1.0 3.0 0.00 0.03 0.00 98 1013.1
20260831110621 66 164 0.0 2.0 0.00 0.04 0.00 98 1013.2
20260831110124 66 140 0.0 3.0 0.00 0.04 0.00 98 1013.0
20260831105529 66 151 0.0 3.0 0.00 0.04 0.00 98 1013.1
20260831105029 66 130 0.0 3.0 0.00 0.04 0.00 98 1013.1
20260831104527 66 116 0.0 3.0 0.00 0.04 0.00 98 1013.2
20260831104027 66 131 0.0 2.0 0.00 0.04 0.00 98 1013.4
20260831103527 66 142 0.0 2.0 0.00 0.04 0.00 98 1013.4
20260831103026 66 117 1.0 3.0 0.00 0.04 0.00 98 1013.4
20260831102520 66 106 1.0 3.0 0.00 0.04 0.00 98 1013.3
20260831102020 66 103 0.0 2.0 0.00 0.04 0.00 98 1013.5
20260831101521 66 100 0.0 2.0 0.00 0.04 0.00 98 1013.6
20260831101242 66 135 1.0 4.0 0.00 0.04 0.00 98 1013.5
20260831100018 66 166 1.0 4.0 0.00 0.04 0.00 98 1013.5
20260831095512 66 200 1.0 4.0 0.00 0.04 0.00 98 1013.7
20260831095011 66 147 2.0 4.0 0.00 0.04 0.00 98 1013.5
20260831094511 66 97 2.0 4.0 0.00 0.04 0.00 98 1013.6
20260831094012 66 123 0.0 4.0 0.00 0.04 0.00 98 1013.8
20260831093511 66 168 1.0 3.0 0.00 0.04 0.00 98 1013.8
20260831093011 66 157 1.0 4.0 0.00 0.04 0.00 98 1013.8
20260831092735 66 157 2.0 4.0 0.00 0.04 0.00 98 1014.0
20260831092011 66 172 1.0 3.0 0.00 0.04 0.00 98 1014.0
20260831091510 66 152 1.0 3.0 0.00 0.04 0.00 98 1013.9
20260831091012 66 162 1.0 3.0 0.00 0.04 0.00 98 1014.0
20260831090511 66 169 0.0 3.0 0.00 0.04 0.00 98 1014.1
20260831090010 66 189 1.0 2.0 0.00 0.04 0.00 98 1014.1
20260831085510 66 100 0.0 2.0 0.00 0.04 0.00 98 1014.3
20260831085010 66 97 0.0 2.0 0.00 0.04 0.00 98 1014.1
20260831084510 66 82 2.0 2.0 0.00 0.04 0.00 98 1014.0
20260831084008 66 99 0.0 1.0 0.00 0.04 0.00 98 1014.0
20260831083506 66 103 0.0 2.0 0.00 0.04 0.00 98 1013.9
20260831083006 66 100 1.0 3.0 0.00 0.04 0.00 98 1013.8
20260831082505 66 111 1.0 3.0 0.00 0.04 0.00 98 1013.8
20260831082008 66 114 1.0 3.0 0.00 0.04 0.00 98 1013.9
20260831081504 66 113 1.0 3.0 0.00 0.04 0.00 98 1013.8
20260831081004 66 123 1.0 3.0 0.00 0.04 0.00 98 1013.8
20260831080500 66 89 2.0 3.0 0.00 0.04 0.00 98 1013.8
20260831075959 66 145 1.0 3.0 0.00 0.04 0.00 98 1013.7
20260831075459 66 127 1.0 3.0 0.00 0.04 0.00 98 1013.7
20260831074958 66 144 1.0 4.0 0.00 0.04 0.00 98 1013.5
20260831074457 66 86 2.0 4.0 0.00 0.04 0.00 98 1013.3
20260831073955 66 102 1.0 3.0 0.00 0.04 0.00 98 1013.3
20260831073723 66 95 2.0 3.0 0.00 0.04 0.00 98 1013.4
20260831072951 66 86 2.0 3.0 0.00 0.04 0.00 98 1013.4
20260831072451 66 100 2.0 3.0 0.00 0.04 0.00 98 1013.4
20260831071951 66 135 0.0 5.0 0.00 0.04 0.00 98 1013.4
20260831071717 66 114 2.0 5.0 0.00 0.05 0.00 98 1013.4
20260831070950 66 76 3.0 5.0 0.00 0.05 0.00 98 1013.5
20260831070452 66 86 3.0 5.0 0.00 0.06 0.00 98 1013.6
20260831065953 66 99 2.0 7.0 0.00 0.06 0.00 98 1013.7
20260831065449 66 86 4.0 7.0 0.00 0.06 0.00 97 1013.7
20260831064951 66 85 4.0 7.0 0.00 0.06 0.00 98 1013.8
20260831064455 66 97 2.0 5.0 0.00 0.06 0.00 98 1013.9
20260831063948 66 87 3.0 5.0 0.00 0.07 0.00 98 1013.9
20260831063446 66 95 3.0 4.0 0.00 0.07 0.00 98 1014.0
20260831062946 66 103 2.0 4.0 0.00 0.07 0.00 98 1014.1
20260831062448 66 72 2.0 5.0 0.00 0.08 0.00 98 1014.1
20260831061945 66 87 3.0 5.0 0.00 0.08 0.00 97 1014.0
20260831061445 66 102 2.0 3.0 0.00 0.09 0.00 97 1014.0
20260831060945 67 97 2.0 3.0 0.00 0.10 0.00 98 1014.1
20260831060444 67 121 1.0 3.0 0.00 0.10 0.00 98 1014.1
20260831060210 67 93 0.0 4.0 0.00 0.11 0.00 98 1014.1
20260831055443 67 102 2.0 4.0 0.00 0.11 0.00 98 1014.1
20260831054943 67 111 1.0 4.0 0.00 0.11 0.00 98 1014.1
20260831054440 67 114 1.0 4.0 0.00 0.11 0.00 98 1014.1
20260831053939 67 118 2.0 4.0 0.00 0.11 0.00 97 1014.0
20260831053439 67 89 1.0 3.0 0.00 0.11 0.00 97 1014.0
20260831052940 67 131 0.0 3.0 0.00 0.11 0.00 98 1014.1
20260831052658 67 134 0.0 3.0 0.00 0.11 0.00 97 1014.1
20260831051935 67 110 1.0 4.0 0.00 0.11 0.00 97 1014.1
20260831051435 66 90 2.0 4.0 0.00 0.11 0.00 97 1014.2
20260831050935 66 114 2.0 4.0 0.00 0.11 0.00 97 1014.2
20260831050435 66 141 1.0 3.0 0.00 0.11 0.00 97 1014.2
20260831045934 66 140 0.0 3.0 0.00 0.12 0.00 97 1014.4
20260831045433 66 137 1.0 3.0 0.00 0.12 0.00 97 1014.2
20260831045205 66 123 0.0 2.0 0.00 0.12 0.00 97 1014.3
20260831044656 66 157 0.0 3.0 0.00 0.12 0.00 97 1014.5
20260831043936 66 155 1.0 3.0 0.00 0.12 0.00 97 1014.5
20260831043659 66 90 1.0 4.0 0.00 0.12 0.00 97 1014.3
20260831042933 66 106 1.0 4.0 0.00 0.12 0.00 97 1014.4
20260831042433 66 90 2.0 4.0 0.00 0.12 0.00 97 1014.3
20260831041932 66 116 1.0 4.0 0.00 0.12 0.00 97 1014.2
20260831041658 66 86 2.0 4.0 0.00 0.12 0.00 97 1014.1
20260831040932 66 87 1.0 3.0 0.00 0.13 0.00 97 1014.2
20260831040434 67 106 0.0 2.0 0.00 0.13 0.00 97 1014.2
20260831040200 67 106 1.0 2.0 0.00 0.13 0.13 97 1014.3
20260831035702 66 114 0.0 2.0 0.00 0.13 0.13 97 1014.4
20260831034935 66 123 0.0 3.0 0.00 0.13 0.13 97 1014.4
20260831034435 67 99 1.0 3.0 0.00 0.13 0.13 97 1014.5
20260831033934 67 78 1.0 3.0 0.00 0.13 0.13 97 1014.5
20260831033437 67 85 1.0 3.0 0.00 0.13 0.13 97 1014.5
20260831032435 67 117 1.0 5.0 0.00 0.13 0.13 97 1014.5
20260831032201 67 134 0.0 5.0 0.00 0.13 0.13 97 1014.4
20260831031435 67 185 0.0 3.0 0.00 0.13 0.13 97 1014.3
20260831030933 66 162 1.0 4.0 0.00 0.13 0.13 97 1014.4
20260831030656 66 128 1.0 4.0 0.00 0.13 0.13 97 1014.4
20260831025929 66 140 2.0 4.0 0.00 0.13 0.13 97 1014.3
20260831025429 66 176 1.0 3.0 0.00 0.13 0.13 97 1014.3
20260831024929 66 171 1.0 3.0 0.00 0.13 0.13 97 1014.4
20260831024426 66 130 1.0 6.0 0.00 0.13 0.13 97 1014.5
20260831023926 66 95 3.0 6.0 0.00 0.13 0.13 97 1014.4
20260831023427 66 82 1.0 3.0 0.00 0.13 0.13 97 1014.3
20260831022926 66 71 1.0 2.0 0.00 0.13 0.13 97 1014.4
20260831022427 66 85 1.0 2.0 0.00 0.13 0.13 97 1014.4
20260831021927 66 123 0.0 3.0 0.00 0.13 0.13 97 1014.4
20260831021651 66 165 1.0 5.0 0.00 0.13 0.13 97 1014.4
20260831021158 66 130 2.0 5.0 0.00 0.13 0.13 97 1014.3
20260831020422 66 68 1.0 5.0 0.00 0.13 0.13 97 1014.4
20260831015921 66 86 3.0 6.0 0.00 0.13 0.13 97 1014.4
20260831015420 66 87 2.0 6.0 0.00 0.13 0.13 97 1014.4
20260831015148 66 111 3.0 5.0 0.00 0.13 0.13 96 1014.4
20260831014418 66 65 2.0 3.0 0.00 0.13 0.13 97 1014.4
20260831013921 66 80 0.0 3.0 0.00 0.13 0.13 97 1014.3
20260831013416 66 93 0.0 4.0 0.00 0.13 0.13 96 1014.2
20260831012916 66 102 1.0 4.0 0.00 0.13 0.13 96 1014.0
20260831012414 66 103 2.0 5.0 0.00 0.13 0.13 96 1014.0
20260831011913 66 128 1.0 5.0 0.00 0.13 0.13 96 1014.0
20260831011412 66 120 2.0 4.0 0.00 0.13 0.13 96 1014.2
20260831011137 66 92 2.0 3.0 0.00 0.13 0.13 96 1014.0
20260831010639 66 102 1.0 2.0 0.00 0.13 0.13 96 1014.1
20260831005912 66 140 0.0 1.0 0.00 0.13 0.13 96 1014.2
20260831004911 66 87 0.0 6.0 0.00 0.13 0.13 96 1014.0
20260831004410 66 117 2.0 6.0 0.00 0.13 0.13 96 1013.7
20260831003410 66 96 2.0 5.0 0.00 0.13 0.13 96 1013.9
20260831002909 66 151 2.0 5.0 0.00 0.13 0.13 96 1013.8
20260831002409 66 89 3.0 5.0 0.00 0.13 0.13 96 1013.7
20260831002140 66 93 3.0 5.0 0.00 0.13 0.13 96 1013.7
20260831001406 66 69 2.0 5.0 0.00 0.13 0.13 96 1013.6
20260831000906 66 117 3.0 6.0 0.00 0.13 0.13 95 1013.6
20260831000405 67 128 3.0 6.0 0.00 0.13 0.13 95 1013.6
20260830235905 67 73 3.0 6.0 0.00 0.13 0.13 95 1013.6
20260830235404 67 102 3.0 6.0 0.00 0.13 0.13 95 1013.5
20260830234905 67 142 2.0 7.0 0.00 0.13 0.13 95 1013.6
20260830234629 67 97 4.0 7.0 0.00 0.13 0.13 95 1013.6
20260830233905 67 138 2.0 6.0 0.00 0.13 0.13 95 1013.5
20260830233405 67 116 1.0 6.0 0.00 0.13 0.13 94 1013.7
20260830232909 67 100 3.0 6.0 0.00 0.13 0.13 94 1013.6
20260830232405 67 89 2.0 5.0 0.00 0.13 0.13 94 1013.8
20260830231904 67 80 2.0 4.0 0.00 0.13 0.13 94 1014.0
20260830231404 67 95 1.0 6.0 0.00 0.13 0.13 94 1014.1
20260830230903 67 80 1.0 6.0 0.00 0.13 0.13 94 1014.0
20260830230630 68 55 3.0 4.0 0.00 0.13 0.13 94 1014.1
20260830225904 68 137 1.0 5.0 0.00 0.13 0.13 95 1014.2
20260830225403 68 114 4.0 5.0 0.00 0.13 0.13 95 1014.2
20260830224903 68 71 2.0 4.0 0.00 0.13 0.13 95 1014.2
20260830224403 68 90 1.0 4.0 0.00 0.13 0.13 95 1014.2
20260830223903 68 120 2.0 4.0 0.00 0.13 0.13 95 1014.2
20260830223403 67 126 2.0 4.0 0.00 0.13 0.13 95 1014.3
20260830222901 67 89 2.0 4.0 0.00 0.13 0.13 95 1014.3
20260830222402 67 85 2.0 4.0 0.00 0.13 0.13 95 1014.3
20260830221900 67 86 1.0 4.0 0.00 0.13 0.13 95 1014.4
20260830221358 67 86 2.0 4.0 0.00 0.13 0.13 95 1014.3
20260830220856 67 117 2.0 4.0 0.00 0.13 0.13 95 1014.3
20260830220356 67 113 0.0 2.0 0.00 0.13 0.13 95 1014.3
20260830220124 67 123 1.0 3.0 0.00 0.13 0.13 95 1014.3
20260830215358 67 89 1.0 5.0 0.00 0.13 0.13 95 1014.3
20260830214856 67 127 1.0 6.0 0.00 0.13 0.13 95 1014.3
20260830213856 67 103 3.0 9.0 0.00 0.13 0.13 94 1014.1
20260830213354 67 89 4.0 9.0 0.00 0.13 0.13 94 1014.0
20260830212855 67 102 5.0 9.0 0.00 0.13 0.13 94 1013.9
20260830212354 68 85 3.0 9.0 0.00 0.13 0.13 93 1013.9
20260830211853 68 116 3.0 6.0 0.00 0.13 0.13 93 1014.0
20260830211353 68 104 4.0 6.0 0.00 0.13 0.13 93 1013.9
20260830210851 68 80 3.0 7.0 0.00 0.13 0.13 93 1013.9
20260830210351 68 110 2.0 7.0 0.00 0.13 0.13 92 1013.9
20260830205852 69 106 2.0 6.0 0.00 0.13 0.13 92 1013.9
20260830205349 69 99 4.0 6.0 0.00 0.13 0.13 91 1013.9
20260830204852 69 104 3.0 6.0 0.00 0.13 0.13 92 1013.8
20260830204612 70 130 3.0 5.0 0.00 0.13 0.13 91 1013.8
20260830203849 70 40 2.0 5.0 0.00 0.13 0.13 91 1013.8
20260830203616 70 85 2.0 6.0 0.00 0.13 0.13 91 1013.9
20260830202953 70 76 3.0 6.0 0.00 0.13 0.13 91 1013.9
20260830202348 70 71 3.0 7.0 0.00 0.13 0.13 91 1013.8
20260830201848 70 78 4.0 7.0 0.00 0.13 0.13 90 1013.8
20260830201348 71 83 3.0 6.0 0.00 0.13 0.13 90 1013.9
20260830200846 71 95 2.0 5.0 0.00 0.13 0.13 90 1013.8
20260830200346 71 104 4.0 5.0 0.00 0.13 0.13 91 1013.7
20260830195846 70 75 3.0 5.0 0.00 0.13 0.13 91 1013.7
20260830195346 70 59 3.0 5.0 0.00 0.13 0.13 90 1013.8
20260830194844 70 58 1.0 4.0 0.00 0.13 0.13 91 1013.8
20260830194346 70 102 1.0 5.0 0.00 0.13 0.13 90 1013.8
20260830193848 70 100 2.0 5.0 0.00 0.13 0.13 91 1013.9
20260830193348 70 110 1.0 3.0 0.00 0.13 0.13 91 1013.9
20260830192845 69 99 1.0 3.0 0.00 0.13 0.13 91 1014.0
20260830192346 69 162 0.0 6.0 0.00 0.13 0.13 91 1014.0
20260830191845 69 165 1.0 6.0 0.00 0.13 0.13 91 1013.9
20260830191348 69 164 1.0 3.0 0.00 0.13 0.13 91 1014.0
20260830190845 69 185 0.0 3.0 0.00 0.13 0.13 91 1014.1
20260830190345 69 152 2.0 4.0 0.00 0.13 0.13 91 1014.1
20260830190105 69 104 2.0 4.0 0.00 0.13 0.13 90 1014.1
20260830185345 69 149 1.0 4.0 0.00 0.13 0.13 91 1014.1
20260830184844 69 127 0.0 4.0 0.00 0.13 0.13 91 1014.1
20260830184345 69 134 2.0 3.0 0.00 0.13 0.13 91 1014.2
20260830183843 69 147 0.0 3.0 0.00 0.13 0.13 91 1014.3
20260830183344 69 106 2.0 3.0 0.00 0.13 0.13 91 1014.2
20260830182843 69 152 0.0 4.0 0.00 0.13 0.13 91 1014.1
20260830182344 69 104 1.0 4.0 0.00 0.13 0.13 90 1014.3
20260830181843 69 172 2.0 4.0 0.00 0.13 0.13 90 1014.2
20260830181344 69 224 1.0 5.0 0.00 0.13 0.13 90 1014.1
20260830180843 69 145 1.0 5.0 0.00 0.13 0.13 91 1014.2
20260830180344 70 148 2.0 4.0 0.00 0.13 0.13 91 1014.1
20260830180112 70 144 1.0 4.0 0.00 0.13 0.13 91 1014.1
20260830175342 69 175 2.0 5.0 0.00 0.13 0.13 93 1014.1
20260830174841 69 137 1.0 5.0 0.00 0.13 0.13 93 1014.1
20260830174337 68 196 2.0 4.0 0.00 0.13 0.13 93 1014.2
20260830173835 68 166 0.0 4.0 0.00 0.13 0.13 93 1014.1
20260830173334 68 186 1.0 5.0 0.00 0.13 0.13 93 1014.2
20260830172834 68 206 2.0 5.0 0.00 0.13 0.13 93 1014.2
20260830172334 68 189 3.0 5.0 0.00 0.13 0.13 93 1014.2
20260830171833 68 159 1.0 4.0 0.00 0.13 0.13 93 1014.1
20260830171818 68 171 1.0 3.0 0.00 0.13 0.13 93 1014.1
20260830170833 68 248 1.0 4.0 0.00 0.13 0.13 93 1014.2
20260830170331 68 204 1.0 4.0 0.00 0.13 0.13 93 1014.1
20260830165834 68 128 1.0 6.0 0.00 0.13 0.13 93 1014.1
20260830165332 68 188 2.0 7.0 0.00 0.13 0.13 93 1014.1
20260830164832 68 175 3.0 7.0 0.00 0.13 0.13 93 1014.1
20260830164331 69 149 1.0 6.0 0.00 0.13 0.13 96 1014.1
20260830164119 67 204 2.0 5.0 0.00 0.13 0.13 95 1014.2
20260830162914 67 157 2.0 4.0 0.00 0.13 0.13 95 1014.5
20260830162333 67 159 1.0 4.0 0.00 0.13 0.13 95 1014.5
20260830161831 66 161 2.0 5.0 0.00 0.13 0.13 95 1014.6
20260830161640 66 189 1.0 5.0 0.00 0.13 0.13 95 1014.7
20260830160830 66 159 1.0 5.0 0.00 0.13 0.13 95 1014.7
20260830160458 66 151 1.0 6.0 0.00 0.13 0.13 95 1014.5